Location: Molveno
(46.1500°N, 10.9667°E)
Time: 08:09:31
(UTC+00:00)

SL-08 ROCKET BODY - Pass Details

Date: 05 July 2020
Orbit: 898 x 962 km, 82.9° (Epoch: 05 August)

Event Time Altitude Azimuth Distance (km) Brightness Sun altitude
Rises 19:54:00 0° 181° (S) 3,528 7.0 -6.8°
Reaches altitude 10° 19:56:26 10° 180° (S) 2,598 6.3 -7.1°
Maximum altitude 20:02:20 78° 96° (E) 952 4.4 -7.8°
Drops below altitude 10° 20:08:24 10° 11° (N) 2,661 7.3 -8.5°
Sets 20:10:55 0° 10° (N) 3,619 8.0 -8.8°
